Previsão horária em Aboleshevo

Hoje, 18 Maio, Terça-feira

Tempo Temperatura Precipitação Vento Pressão Humidade
00:00 +18°C° 0 mm 4 m/s 737 mmHg 92%
01:00 +17°C° 0 mm 4 m/s 737 mmHg 93%
02:00 +17°C° 0 mm 4 m/s 737 mmHg 93%
03:00 +17°C° 0 mm 4 m/s 737 mmHg 92%
04:00 +18°C° 0 mm 4 m/s 737 mmHg 91%
05:00 +18°C° 0 mm 4 m/s 737 mmHg 90%
06:00 +19°C° 0 mm 4 m/s 737 mmHg 83%
07:00 +21°C° 0 mm 4 m/s 737 mmHg 77%
08:00 +22°C° 0 mm 4 m/s 737 mmHg 71%
09:00 +25°C° 0 mm 5 m/s 737 mmHg 64%
10:00 +26°C° 0 mm 5 m/s 737 mmHg 58%
11:00 +27°C° 0 mm 5 m/s 737 mmHg 52%
12:00 +28°C° 0 mm 5 m/s 737 mmHg 50%
13:00 +28°C° 0 mm 5 m/s 737 mmHg 48%
14:00 +29°C° 0 mm 5 m/s 737 mmHg 46%
15:00 +28°C° 0 mm 5 m/s 737 mmHg 49%
16:00 +27°C° 0 mm 5 m/s 736 mmHg 52%
17:00 +26°C° 0 mm 5 m/s 736 mmHg 55%
18:00 +23°C° 0 mm 5 m/s 736 mmHg 58%
19:00 +22°C° 0 mm 5 m/s 736 mmHg 61%
20:00 +20°C° 0 mm 5 m/s 736 mmHg 63%
21:00 +20°C° 0 mm 5 m/s 736 mmHg 69%
22:00 +19°C° 0 mm 5 m/s 736 mmHg 74%
23:00 +19°C° 0 mm 5 m/s 735 mmHg 80%

Amanhã, 19 Maio, Quarta-feira

Tempo Temperatura Precipitação Vento Pressão Humidade
00:00 +18°C° 0 mm 4 m/s 736 mmHg 85%
01:00 +17°C° 0 mm 3 m/s 736 mmHg 90%
02:00 +16°C° 0 mm 3 m/s 736 mmHg 95%
03:00 +16°C° 0 mm 3 m/s 736 mmHg 93%
04:00 +16°C° 0 mm 3 m/s 736 mmHg 92%
05:00 +17°C° 0 mm 3 m/s 735 mmHg 91%
06:00 +17°C° 0.1 mm 4 m/s 736 mmHg 86%
07:00 +18°C° 0.1 mm 4 m/s 736 mmHg 82%
08:00 +19°C° 0.1 mm 5 m/s 736 mmHg 78%
09:00 +20°C° 0.1 mm 5 m/s 736 mmHg 72%
10:00 +21°C° 0.1 mm 5 m/s 737 mmHg 66%
11:00 +22°C° 0.1 mm 5 m/s 737 mmHg 61%
12:00 +22°C° 0.3 mm 5 m/s 737 mmHg 60%
13:00 +22°C° 0.3 mm 5 m/s 737 mmHg 60%
14:00 +23°C° 0.3 mm 5 m/s 737 mmHg 60%
15:00 +22°C° 0.1 mm 4 m/s 737 mmHg 62%
16:00 +22°C° 0.1 mm 4 m/s 737 mmHg 64%
17:00 +21°C° 0.1 mm 3 m/s 737 mmHg 67%
18:00 +20°C° 0.1 mm 3 m/s 737 mmHg 73%
19:00 +18°C° 0.1 mm 2 m/s 737 mmHg 80%
20:00 +17°C° 0.1 mm 2 m/s 737 mmHg 86%
21:00 +16°C° 0 mm 2 m/s 737 mmHg 88%
22:00 +16°C° 0 mm 1 m/s 736 mmHg 90%
23:00 +15°C° 0 mm 1 m/s 736 mmHg 91%

Depois de amanhã, 20 Maio, Quinta-feira

Tempo Temperatura Precipitação Vento Pressão Humidade
00:00 +15°C° 0.2 mm 1 m/s 736 mmHg 93%
01:00 +15°C° 0.2 mm 2 m/s 735 mmHg 94%
02:00 +15°C° 0.2 mm 2 m/s 735 mmHg 95%
03:00 +15°C° 0 mm 2 m/s 735 mmHg 95%
04:00 +15°C° 0 mm 2 m/s 735 mmHg 95%
05:00 +14°C° 0 mm 3 m/s 734 mmHg 95%
06:00 +16°C° 0 mm 3 m/s 734 mmHg 89%
07:00 +18°C° 0 mm 4 m/s 734 mmHg 83%
08:00 +19°C° 0 mm 5 m/s 734 mmHg 77%
09:00 +19°C° 0.2 mm 5 m/s 734 mmHg 75%
10:00 +17°C° 0.2 mm 6 m/s 734 mmHg 73%
11:00 +17°C° 0.2 mm 6 m/s 734 mmHg 71%
12:00 +17°C° 0.4 mm 6 m/s 734 mmHg 71%
13:00 +17°C° 0.4 mm 7 m/s 734 mmHg 71%
14:00 +17°C° 0.4 mm 7 m/s 734 mmHg 71%
15:00 +16°C° 0.2 mm 7 m/s 733 mmHg 75%
16:00 +15°C° 0.2 mm 6 m/s 733 mmHg 78%
17:00 +14°C° 0.2 mm 6 m/s 733 mmHg 82%
18:00 +13°C° 0.1 mm 6 m/s 733 mmHg 84%
19:00 +11°C° 0.1 mm 6 m/s 733 mmHg 87%
20:00 +10°C° 0.1 mm 6 m/s 733 mmHg 90%
21:00 +10°C° 0 mm 6 m/s 733 mmHg 90%
22:00 +9°C° 0 mm 6 m/s 733 mmHg 91%
23:00 +9°C° 0 mm 6 m/s 734 mmHg 92%

21 Maio, Sexta-feira

Tempo Temperatura Precipitação Vento Pressão Humidade
00:00 +9°C° 0.1 mm 5 m/s 734 mmHg 92%
01:00 +9°C° 0.1 mm 5 m/s 735 mmHg 92%
02:00 +9°C° 0.1 mm 5 m/s 735 mmHg 92%
03:00 +8°C° 0.1 mm 5 m/s 736 mmHg 92%
04:00 +8°C° 0.1 mm 5 m/s 736 mmHg 92%
05:00 +8°C° 0.1 mm 5 m/s 737 mmHg 91%
06:00 +9°C° 0 mm 5 m/s 737 mmHg 89%
07:00 +9°C° 0 mm 5 m/s 738 mmHg 87%
08:00 +9°C° 0 mm 5 m/s 739 mmHg 85%
09:00 +12°C° 0 mm 5 m/s 739 mmHg 75%
10:00 +14°C° 0 mm 5 m/s 740 mmHg 65%
11:00 +15°C° 0 mm 5 m/s 740 mmHg 54%
12:00 +16°C° 0 mm 5 m/s 741 mmHg 50%
13:00 +17°C° 0 mm 4 m/s 741 mmHg 46%
14:00 +18°C° 0 mm 4 m/s 741 mmHg 41%
15:00 +18°C° 0 mm 4 m/s 741 mmHg 45%
16:00 +18°C° 0 mm 3 m/s 742 mmHg 49%
17:00 +17°C° 0 mm 3 m/s 742 mmHg 53%
18:00 +16°C° 0 mm 3 m/s 742 mmHg 59%
19:00 +14°C° 0 mm 2 m/s 742 mmHg 66%
20:00 +12°C° 0 mm 2 m/s 743 mmHg 73%
21:00 +12°C° 0 mm 2 m/s 743 mmHg 75%
22:00 +10°C° 0 mm 2 m/s 743 mmHg 78%
23:00 +9°C° 0 mm 2 m/s 743 mmHg 81%

22 Maio, Sábado

Tempo Temperatura Precipitação Vento Pressão Humidade
00:00 +8°C° 0 mm 2 m/s 743 mmHg 83%
01:00 +8°C° 0 mm 2 m/s 744 mmHg 85%
02:00 +7°C° 0 mm 2 m/s 744 mmHg 86%
03:00 +9°C° 0 mm 1 m/s 744 mmHg 85%
04:00 +9°C° 0 mm 1 m/s 744 mmHg 83%
05:00 +9°C° 0 mm 1 m/s 744 mmHg 82%
06:00 +11°C° 0 mm 1 m/s 744 mmHg 74%
07:00 +13°C° 0 mm 1 m/s 745 mmHg 66%
08:00 +15°C° 0 mm 1 m/s 745 mmHg 58%
09:00 +16°C° 0 mm 1 m/s 744 mmHg 53%
10:00 +18°C° 0 mm 1 m/s 744 mmHg 48%
11:00 +18°C° 0 mm 2 m/s 744 mmHg 43%
12:00 +19°C° 0 mm 2 m/s 744 mmHg 42%
13:00 +19°C° 0 mm 2 m/s 744 mmHg 41%
14:00 +19°C° 0 mm 2 m/s 744 mmHg 39%
15:00 +19°C° 0 mm 2 m/s 744 mmHg 43%
16:00 +19°C° 0 mm 2 m/s 744 mmHg 46%
17:00 +20°C° 0 mm 1 m/s 744 mmHg 49%
18:00 +18°C° 0 mm 1 m/s 744 mmHg 56%
19:00 +15°C° 0 mm 1 m/s 744 mmHg 62%
20:00 +13°C° 0 mm 1 m/s 743 mmHg 68%
21:00 +12°C° 0 mm 1 m/s 744 mmHg 72%
22:00 +12°C° 0 mm 2 m/s 744 mmHg 75%
23:00 +10°C° 0 mm 2 m/s 744 mmHg 79%

23 Maio, Domingo

Tempo Temperatura Precipitação Vento Pressão Humidade
00:00 +10°C° 0 mm 2 m/s 744 mmHg 84%
01:00 +10°C° 0 mm 2 m/s 744 mmHg 88%
02:00 +9°C° 0 mm 2 m/s 744 mmHg 93%
03:00 +10°C° 0 mm 2 m/s 743 mmHg 92%
04:00 +10°C° 0 mm 2 m/s 743 mmHg 91%
05:00 +10°C° 0 mm 3 m/s 743 mmHg 89%
06:00 +12°C° 0 mm 3 m/s 742 mmHg 83%
07:00 +13°C° 0 mm 4 m/s 742 mmHg 76%
08:00 +14°C° 0 mm 4 m/s 741 mmHg 70%
09:00 +17°C° 0 mm 4 m/s 741 mmHg 67%
10:00 +18°C° 0 mm 4 m/s 741 mmHg 64%
11:00 +19°C° 0 mm 5 m/s 740 mmHg 62%
12:00 +19°C° 0 mm 5 m/s 740 mmHg 61%
13:00 +19°C° 0 mm 5 m/s 739 mmHg 61%
14:00 +20°C° 0 mm 5 m/s 739 mmHg 61%
15:00 +19°C° 0 mm 5 m/s 738 mmHg 64%
16:00 +19°C° 0 mm 5 m/s 738 mmHg 66%
17:00 +19°C° 0 mm 5 m/s 738 mmHg 69%
18:00 +16°C° 0.7 mm 5 m/s 738 mmHg 76%
19:00 +15°C° 0.7 mm 5 m/s 738 mmHg 83%
20:00 +13°C° 0.7 mm 5 m/s 738 mmHg 90%
21:00 +13°C° 0 mm 5 m/s 739 mmHg 91%
22:00 +12°C° 0 mm 4 m/s 739 mmHg 93%
23:00 +11°C° 0 mm 3 m/s 740 mmHg 94%
Mostrar mais

Necessitamos do seu Consentimento

A Meteoprog e os seus Fornecedores de Serviços podem armazenar e aceder a dados pessoais como cookies, identificadores do dispositivo ou outras tecnologias semelhantes existentes no seu dispositivo e processar estes dados para personalizar conteúdos e anúncios, assim como funcionalidades nas redes sociais e análise de tráfego.

  • Armazenar e/ou aceder a informações no seu dispositivo

    Os cookies, identificadores do dispositivo ou outras informações podem ser armazenados ou acedidos no seu dispositivo, para os fins acima indicados.

  • Anúncios e conteúdos personalizados, medição de anúncios e conteúdos, dados sobre o público-alvo e desenvolvimento de produtos

    Os anúncios e os conteúdos podem ser personalizados com base num perfil. Podem ser adicionados dados adicionais para uma maior personalização dos anúncios e dos conteúdos. A eficácia dos anúncios e dos conteúdos pode ser medida. Podem ser obtidas informações sobre o público que visualizou os anúncios e os conteúdos. Estes dados podem ser usados para desenvolver ou melhorar sistemas, softwares ou a experiência do utilizador.

Ao clicar em "Eu concordo”, permitirá o uso de cookies, identificadores do dispositivo e web beacons mencionados ou outras tecnologias semelhantes. As configurações do navegador do seu dispositivo podem ser alteradas.

Para certos fins, podem ser invocados interesses legítimos ao invés de consentimento. Pode ler mais informação sobre este assunto na nossa Política de Privacidade e Cookies.